Theta_e
320 320 320 321 321 324 324 326 320 319 319 311 313 316 315 319 319 320 320 319 320 319 318 318 318 317 318 318 318 318 318 318 318 318 318 327 331 329 337 328 325 340 343 343 345 344 345 344 344 344 343 343 343 343 342 343 342 341 341 340 340 339 338 337 338 339 340 339 339 339 339 339 339 340 340 340 339 339 339 339 338 337 335 332 332 329 325 324 323 322 323 325 325 325 326 325 324
321 322 323 322 323 326 326 325 319 313 314 309 313 316 315 320 319 319 319 319 320 318 318 318 318 317 318 318 318 319 317 319 318 319 320 326 329 330 331 326 331 341 342 343 345 345 346 344 343 344 343 342 343 343 343 343 342 341 340 340 340 339 339 337 337 338 339 338 338 338 338 338 339 339 339 339 338 338 338 338 338 338 336 334 335 332 327 324 324 325 327 328 327 326 326 326 327
319 321 323 324 325 326 325 323 317 310 310 309 311 316 318 319 318 319 318 318 319 318 319 318 319 318 319 319 318 319 318 319 318 320 322 324 329 332 329 324 329 340 343 343 345 345 346 345 343 344 343 342 342 343 343 343 342 341 341 341 340 340 339 337 337 338 339 338 337 338 337 338 338 338 338 339 338 338 338 338 338 338 337 336 337 335 331 329 329 329 330 329 327 325 323 323 324
319 321 321 323 325 324 324 322 317 311 309 309 310 316 319 318 317 317 317 318 318 318 318 318 319 318 319 319 318 319 319 318 319 321 323 327 329 331 330 325 328 339 344 342 343 344 345 345 343 344 343 342 342 342 343 343 342 341 341 341 340 340 338 338 337 337 339 338 337 337 337 338 338 338 338 338 337 338 338 337 337 337 337 337 337 337 335 333 332 331 329 326 324 322 321 320 322
322 323 321 324 328 323 323 320 318 313 310 311 311 315 318 317 317 317 318 318 318 318 318 319 319 318 318 318 319 319 318 319 321 322 326 329 326 329 328 325 332 339 343 343 342 343 345 345 343 344 343 342 342 342 343 343 342 341 341 341 340 339 338 337 335 337 339 337 336 336 336 337 337 337 337 337 337 337 337 337 337 337 337 336 336 336 335 333 331 329 325 322 320 317 317 317 320
323 324 322 324 325 322 321 315 313 314 315 318 314 315 317 316 317 316 318 318 318 318 317 318 318 318 318 317 318 318 319 318 320 325 329 330 324 330 332 330 337 339 341 344 342 342 344 344 343 343 343 343 342 342 343 343 342 342 341 341 340 339 339 337 333 335 337 336 335 335 335 336 336 336 336 336 336 336 335 336 336 336 336 336 335 335 335 333 329 326 323 321 319 318 317 317 320
321 322 324 324 323 323 321 314 313 314 317 320 317 317 317 316 317 317 317 318 317 318 317 318 317 318 317 317 318 319 321 319 323 329 332 332 327 331 336 337 339 339 341 343 342 342 344 344 343 343 343 342 342 342 342 342 342 342 342 341 341 339 339 337 334 334 334 333 333 333 335 335 335 334 334 333 334 334 334 334 335 335 336 335 335 334 335 333 329 326 325 322 320 319 317 318 321
321 323 324 324 323 322 319 315 317 317 316 318 318 317 317 317 318 317 318 317 317 317 317 317 317 317 316 317 319 320 322 323 327 330 332 331 330 332 335 339 340 339 341 343 342 342 343 343 342 343 343 342 342 342 342 341 342 342 342 341 340 340 339 337 335 335 335 334 334 332 333 334 335 334 332 331 332 332 333 334 334 335 335 334 334 334 333 331 329 327 325 321 319 317 317 319 316
323 322 323 325 321 318 316 316 318 318 318 317 317 317 317 317 317 317 317 317 317 316 316 316 317 316 316 318 319 319 320 324 328 329 331 328 328 333 332 335 340 341 341 342 342 341 342 342 342 343 342 342 341 342 342 341 341 341 342 341 340 340 339 338 336 336 337 336 335 333 332 333 335 335 332 330 331 331 333 334 334 335 335 333 332 332 331 329 328 326 325 321 318 315 316 316 308
322 321 323 324 318 315 313 314 317 318 319 318 317 317 317 317 316 317 317 317 316 316 316 316 317 316 316 318 317 318 318 321 324 327 332 328 326 330 328 330 337 341 340 341 341 339 340 340 341 343 342 342 341 342 342 341 341 341 341 341 340 340 339 338 336 336 337 337 336 334 332 334 336 336 334 332 332 332 333 334 335 335 333 332 331 331 329 328 327 326 324 321 318 314 315 312 300
320 319 321 321 315 311 311 313 317 319 318 317 317 317 316 316 316 317 317 317 317 316 316 316 317 316 315 318 317 317 317 320 324 326 331 331 328 326 327 328 331 336 338 339 339 338 339 339 341 342 342 341 341 342 342 342 342 341 341 341 341 340 339 337 336 336 336 337 336 335 334 335 336 337 336 335 335 334 334 334 335 334 333 332 331 331 329 328 327 326 324 322 319 313 312 308 298
320 318 319 317 314 313 314 315 317 320 319 318 317 316 316 316 316 317 317 317 316 316 316 316 316 316 316 317 317 316 316 317 322 327 330 332 331 329 331 331 331 333 335 336 337 337 338 339 340 341 341 340 340 341 341 343 342 342 341 341 341 340 339 337 336 335 335 337 336 335 335 336 336 337 337 336 336 335 335 335 334 334 332 331 332 331 329 328 327 326 323 321 320 314 311 306 297
320 318 317 315 317 317 316 316 318 319 318 318 318 316 315 315 317 317 317 317 316 316 316 315 315 316 317 316 317 316 314 315 320 326 330 331 331 333 333 331 332 333 334 335 336 336 338 339 340 340 340 339 340 340 341 342 342 342 341 341 340 340 339 337 336 335 335 335 336 335 336 336 336 337 337 336 336 335 335 334 334 333 332 332 332 331 329 328 327 326 323 321 321 316 310 303 298
321 319 318 317 318 318 316 317 318 317 316 318 317 316 316 315 316 316 316 317 316 316 315 315 315 315 316 316 317 315 314 313 316 323 329 331 330 332 332 331 331 333 334 334 335 335 336 337 339 340 340 339 339 339 340 341 341 341 341 340 341 340 339 338 336 335 335 334 335 335 335 335 336 337 337 336 336 336 335 334 334 332 332 332 332 330 329 328 328 326 323 321 321 319 313 303 298
322 319 319 318 315 316 316 319 318 315 316 318 317 316 316 315 315 315 316 316 316 315 315 315 315 315 316 315 316 314 312 312 314 320 327 329 329 328 329 330 329 331 333 334 335 335 335 336 337 339 340 340 340 339 339 340 340 340 340 340 340 340 340 338 336 335 335 334 334 334 334 335 335 336 336 336 336 335 335 335 334 332 333 332 331 330 329 328 328 326 323 321 321 322 318 308 299
320 319 319 316 313 313 315 319 318 315 317 318 316 316 317 316 315 316 315 315 316 316 315 315 314 314 314 314 314 312 311 312 313 319 323 325 327 324 323 325 326 327 328 330 331 331 333 335 335 337 338 340 340 340 340 340 340 339 339 339 340 340 340 339 338 336 335 334 333 333 333 333 334 334 335 335 336 335 335 335 334 333 332 331 331 329 329 328 328 328 324 321 321 322 321 316 306
319 320 318 314 313 313 314 318 317 316 317 317 316 316 317 316 316 315 314 314 315 316 315 314 313 313 312 312 311 311 312 313 314 317 319 320 322 321 319 319 320 321 321 323 323 324 327 332 334 336 336 338 339 340 340 340 340 339 338 338 338 339 339 339 338 337 335 334 332 332 332 332 334 334 335 335 335 335 335 335 334 333 332 331 331 329 329 328 328 328 324 320 321 322 321 320 315
320 321 316 313 314 314 316 318 318 318 319 317 316 316 316 317 317 315 315 314 315 316 314 313 313 313 312 311 311 311 312 313 314 316 317 318 318 318 318 318 318 318 318 319 319 319 322 325 330 334 335 336 338 339 339 340 340 339 338 338 337 338 338 338 338 337 336 335 333 331 332 334 336 336 336 335 335 335 334 334 333 333 333 331 330 329 329 328 328 328 324 319 320 321 319 319 319
320 319 315 314 316 315 316 318 318 318 318 317 316 316 316 316 316 315 315 316 316 316 315 313 314 313 312 312 311 312 312 313 314 315 316 317 317 317 317 317 317 318 318 318 318 318 318 320 324 329 334 335 335 337 338 338 338 338 339 338 338 338 337 337 338 338 337 337 336 334 335 336 337 337 337 336 335 335 334 334 333 332 333 332 330 329 328 328 328 328 324 321 320 321 319 318 318
319 319 318 317 316 315 316 317 317 317 317 317 316 315 315 315 315 315 315 316 316 316 315 314 314 314 312 311 311 312 312 313 313 315 316 316 316 316 316 316 316 317 317 317 318 317 317 317 320 324 330 334 335 336 337 337 337 338 339 339 338 338 338 337 338 338 338 338 337 336 337 337 336 336 336 335 335 335 334 334 332 331 332 332 331 329 329 328 329 328 325 323 322 321 320 319 317
319 319 319 316 315 315 315 316 316 316 316 316 316 315 315 315 314 314 315 316 317 315 313 313 313 312 311 310 311 312 312 312 313 314 315 315 316 315 315 315 315 316 316 316 317 317 317 316 316 319 325 331 334 335 337 336 336 337 338 338 338 338 337 338 338 338 338 338 337 337 338 337 337 336 336 336 335 335 335 334 333 331 331 332 330 330 330 329 329 329 326 325 323 322 321 320 319
318 317 317 316 315 317 316 316 316 315 315 315 315 315 315 314 314 314 315 316 316 313 311 310 310 310 309 310 311 311 312 312 312 313 314 314 314 314 314 314 314 314 315 316 316 317 317 316 315 315 319 327 333 334 336 336 336 336 337 337 337 337 336 337 337 337 338 337 336 337 336 336 337 336 335 336 336 335 335 334 334 333 332 332 330 330 330 330 330 329 327 326 324 323 322 321 320
318 317 316 316 316 317 316 316 315 314 314 315 315 315 314 314 315 314 314 315 313 310 309 309 309 309 309 310 310 310 311 311 312 312 312 313 313 313 313 313 313 313 314 315 316 316 316 315 316 316 316 324 331 333 334 335 336 336 336 337 336 336 336 337 337 336 337 336 336 336 336 335 335 336 335 336 336 335 335 334 334 333 332 331 330 330 330 330 330 329 328 326 324 324 322 321 320
318 318 317 316 316 316 316 315 314 313 314 314 314 313 313 314 315 313 312 312 310 308 309 309 309 309 309 309 309 310 310 310 311 311 311 311 311 312 312 312 312 312 313 314 315 315 315 314 317 319 317 323 330 331 333 334 335 336 336 336 335 336 336 337 336 335 336 336 335 335 336 335 335 335 335 335 335 335 334 334 334 333 331 331 331 330 330 330 329 329 328 326 325 324 323 321 320
317 318 316 315 315 315 315 314 314 313 314 314 313 313 314 315 314 312 312 311 309 309 309 309 309 309 309 308 308 310 310 309 310 310 310 311 310 311 311 311 311 312 312 314 315 315 315 315 318 320 320 324 329 329 332 333 334 335 335 335 334 334 334 335 335 334 334 334 334 334 334 335 335 334 334 334 334 334 334 333 333 332 331 331 331 330 329 330 329 329 328 326 325 324 323 322 320
316 316 316 315 315 315 315 314 315 314 313 313 313 314 315 313 313 312 311 310 309 308 308 308 309 308 308 307 308 309 309 309 309 309 310 310 310 310 310 310 310 311 312 314 315 316 316 317 318 320 321 325 328 329 331 332 333 334 334 333 333 333 333 333 333 332 332 332 332 332 332 333 334 334 333 333 334 334 334 333 333 331 331 331 330 330 329 329 329 328 327 326 325 325 323 322 320
315 315 315 315 316 315 315 315 315 314 314 313 313 316 315 311 312 312 309 309 309 308 308 308 308 308 307 307 307 308 308 308 308 308 309 309 309 309 309 308 308 310 312 315 317 317 317 318 320 321 322 326 328 329 330 332 332 333 332 332 332 332 332 331 330 330 330 331 331 331 331 331 332 332 332 333 333 334 333 332 332 331 330 329 328 328 328 328 328 327 327 326 325 324 323 321 321
314 314 315 316 316 316 316 316 315 314 314 313 313 315 313 310 312 313 309 308 309 309 309 308 308 308 307 307 307 307 308 307 307 308 307 308 307 307 308 307 307 309 312 314 316 318 319 319 320 322 324 327 329 329 331 332 331 331 330 329 329 329 330 330 329 329 329 329 330 330 329 330 331 331 331 331 331 331 331 331 331 330 329 328 327 327 327 327 327 326 326 325 325 324 322 321 321
314 314 316 318 317 317 317 315 314 314 313 312 313 314 313 312 312 312 309 308 309 310 309 309 308 308 307 307 306 307 307 306 306 307 306 306 306 306 307 306 306 309 312 313 315 318 319 319 320 322 325 327 328 329 329 329 328 328 327 326 326 326 327 328 327 327 327 327 327 328 327 328 329 329 329 329 329 329 329 329 329 329 328 328 328 328 328 327 327 326 325 324 325 323 322 321 321
315 315 316 317 318 318 317 314 313 314 312 311 313 314 315 315 313 310 309 309 309 310 310 309 308 307 307 307 306 306 306 306 306 305 305 304 304 305 305 305 306 309 311 313 315 318 318 318 319 321 324 326 326 326 326 326 326 326 326 325 325 324 324 325 324 324 325 325 325 326 326 326 327 327 327 327 328 328 327 327 327 326 326 327 327 327 326 326 326 325 324 324 323 323 322 321 321
316 316 316 317 317 316 316 314 314 315 311 311 313 314 315 315 312 310 309 309 310 311 311 309 308 307 307 307 307 306 306 306 305 304 304 303 303 304 304 305 308 310 311 313 315 315 316 317 320 321 323 324 324 324 325 324 325 325 324 324 323 323 322 322 322 322 323 324 324 324 324 325 325 325 325 325 324 325 325 325 325 324 324 325 325 325 324 324 323 323 322 322 321 321 321 321 321
317 316 316 319 317 316 317 314 315 316 312 311 313 315 316 315 312 311 309 309 310 311 311 309 308 307 306 307 306 306 306 305 305 304 303 303 303 303 303 304 309 311 311 312 314 314 315 317 320 321 322 323 323 323 323 323 323 322 322 322 321 321 321 320 319 320 321 321 321 322 322 323 323 323 324 323 322 322 322 321 322 322 322 322 323 323 324 323 322 322 321 321 320 319 319 320 321
318 317 316 318 318 318 317 314 314 315 314 313 314 315 317 315 312 310 309 309 309 311 311 309 308 307 306 306 306 306 306 305 305 304 302 302 302 302 302 304 307 310 310 311 312 313 314 315 318 321 321 321 321 322 322 322 321 321 321 321 320 320 319 318 317 317 318 318 318 318 319 320 320 321 321 321 320 319 318 317 318 317 317 317 318 319 320 321 320 320 319 319 319 318 318 319 319
318 318 317 317 318 317 316 315 314 314 314 315 315 315 317 315 312 310 310 310 310 311 311 309 308 307 306 306 306 306 306 305 304 303 302 302 302 302 302 303 306 308 308 310 310 312 312 312 315 319 319 319 319 320 320 320 319 319 319 319 318 318 317 315 315 316 316 316 316 316 316 317 317 317 317 317 316 315 314 314 315 314 313 312 312 313 315 315 315 315 314 315 315 315 315 315 315
316 318 318 317 317 316 316 316 315 314 315 316 317 317 317 316 313 311 310 309 310 311 310 309 308 307 306 306 306 305 305 304 303 302 301 301 302 302 301 303 305 306 306 308 309 311 312 310 311 313 314 315 316 316 316 316 316 316 315 315 315 314 313 312 312 313 313 313 313 313 313 314 314 314 313 313 312 311 311 311 312 312 312 311 310 310 310 310 311 311 311 311 311 311 310 310 310
318 318 317 317 316 316 318 317 314 315 316 317 318 318 318 317 314 311 310 309 310 311 309 308 307 306 306 306 305 305 304 304 302 301 301 301 301 301 301 302 303 304 305 307 308 310 310 309 309 308 308 310 310 310 309 310 311 310 310 310 310 308 308 308 308 308 308 308 308 309 310 310 310 310 310 310 309 309 308 307 307 307 308 307 307 306 305 306 306 307 308 308 307 307 306 306 306
318 318 317 317 317 317 318 317 314 314 316 318 319 318 319 319 317 313 310 309 310 310 309 308 308 307 306 306 305 305 304 303 302 301 301 301 301 301 301 301 302 303 305 306 308 309 308 308 308 307 307 307 307 306 306 306 306 305 304 304 302 301 302 302 303 303 303 303 304 304 305 305 306 306 306 306 304 304 304 304 303 303 303 303 302 302 302 303 303 304 306 306 306 305 304 303 303
318 317 317 317 317 317 319 317 313 313 315 318 319 319 318 319 318 313 310 310 310 310 310 309 308 307 306 306 305 304 303 303 302 302 301 301 301 301 301 301 302 303 304 305 307 307 307 306 307 307 306 305 305 304 303 303 302 301 300 298 298 297 297 297 298 298 299 300 300 300 300 301 302 302 302 302 301 300 300 300 300 300 300 300 299 299 300 301 301 302 304 305 306 305 303 302 302
318 317 317 317 318 319 319 316 313 313 315 317 318 318 318 318 318 313 310 311 311 310 309 309 308 306 305 305 304 304 303 303 303 302 302 302 302 301 301 301 301 301 302 304 305 304 305 305 306 305 305 304 304 303 302 301 300 300 299 298 297 297 296 295 296 296 297 297 298 298 298 298 299 299 299 299 299 299 299 298 298 298 297 297 296 296 296 297 298 299 301 302 304 304 303 302 301
317 318 317 318 318 320 319 316 314 313 314 316 317 317 318 318 317 313 310 311 309 307 306 306 306 306 305 305 304 304 303 303 302 302 302 302 302 301 301 300 300 300 301 302 303 302 303 304 304 304 304 304 305 305 305 304 302 301 300 298 297 296 295 294 294 294 294 294 294 294 294 294 294 294 295 295 295 295 295 294 294 293 293 293 293 292 292 292 293 295 297 299 301 302 301 301 301
318 318 318 318 319 320 320 318 315 314 314 314 315 318 319 320 320 315 309 308 307 305 304 304 304 304 304 303 303 303 303 303 303 302 301 302 302 301 300 300 300 300 300 301 301 301 302 303 303 303 302 303 303 304 304 303 301 300 298 297 296 295 294 293 293 292 291 290 290 290 290 289 290 290 290 290 290 290 290 290 289 290 290 290 291 291 290 289 289 290 292 294 296 298 298 297 298
318 319 318 318 319 319 320 319 317 319 320 316 316 322 322 320 322 318 309 306 307 305 305 305 304 303 302 302 302 302 302 302 302 302 301 301 301 300 300 300 300 299 299 299 299 300 301 301 301 301 301 301 300 300 300 299 299 298 297 296 295 294 293 292 292 291 290 289 288 288 288 288 288 288 288 288 288 288 288 288 288 288 288 288 288 289 289 288 287 288 289 290 291 293 294 294 294
319 321 319 318 319 320 321 320 319 323 324 317 314 322 323 319 320 319 311 309 309 306 305 306 304 303 302 303 303 302 301 301 301 301 301 301 301 301 300 299 299 298 297 297 298 299 300 300 300 300 300 299 298 298 297 297 297 297 296 296 294 294 292 292 291 290 290 289 288 287 287 287 287 287 287 287 287 287 287 288 288 287 287 287 287 287 287 286 287 287 287 288 289 290 292 292 292
321 320 319 319 319 321 321 321 320 322 322 317 314 318 321 320 319 316 312 311 310 307 307 306 305 303 303 303 303 302 301 301 300 300 300 301 300 300 299 298 297 296 296 296 297 298 299 299 300 299 299 298 297 297 296 296 296 295 294 293 293 292 291 291 291 290 290 289 289 288 287 286 286 286 286 286 287 287 287 287 287 287 286 286 286 286 286 286 286 286 286 286 287 288 289 290 291
320 317 317 318 319 320 320 320 320 320 320 320 317 317 319 320 318 314 312 313 313 311 309 307 305 304 303 303 302 302 301 301 301 300 300 300 299 298 297 296 295 295 295 296 296 297 297 298 298 298 298 296 296 296 296 295 294 293 293 292 292 291 291 291 290 290 290 290 289 289 288 287 286 286 286 286 286 286 286 286 286 286 286 286 286 285 285 285 285 286 285 285 286 286 286 287 289
317 315 316 317 317 318 318 319 319 318 320 321 320 318 320 322 318 315 314 314 315 315 311 308 306 305 303 303 302 301 300 300 300 300 299 299 297 296 296 295 295 294 295 295 295 296 296 296 297 296 296 295 295 295 294 294 293 292 292 292 291 291 291 291 290 290 290 290 290 289 289 288 287 286 286 286 286 285 286 286 286 285 285 285 285 285 285 285 285 285 285 285 285 285 285 286 286
315 316 317 317 316 316 316 317 317 319 321 321 320 318 320 321 320 318 317 316 316 316 312 309 307 305 304 303 302 301 300 299 299 299 298 297 296 295 295 295 294 294 294 294 295 295 295 295 295 295 294 293 293 293 293 293 292 291 291 292 292 292 291 291 291 291 290 290 290 289 289 288 287 286 285 285 285 285 285 285 285 285 285 285 285 285 285 285 285 285 285 285 285 284 285 286 285
316 318 318 319 318 316 317 317 316 321 324 320 318 318 320 321 320 318 317 315 315 315 312 310 307 305 304 303 302 301 300 299 298 298 297 296 295 294 294 294 294 294 294 294 294 294 294 294 294 294 293 293 293 292 292 292 291 291 292 292 292 292 292 291 291 291 291 290 290 290 289 288 287 286 285 285 285 285 285 285 285 285 285 285 285 285 285 285 284 284 284 284 284 284 284 285 285
316 318 318 321 323 320 321 321 319 322 323 315 314 317 320 321 319 317 316 313 313 313 312 310 307 305 304 303 302 301 300 299 298 297 297 296 295 295 294 294 294 294 294 294 294 294 294 293 293 293 292 292 291 291 291 290 291 291 291 291 291 291 291 291 291 290 290 290 290 289 289 288 287 286 285 285 285 285 285 285 285 285 285 285 284 284 284 284 284 284 284 284 284 283 283 284 284
316 318 319 322 326 326 326 325 322 324 319 312 312 316 318 319 317 316 313 310 308 308 310 310 307 305 304 303 302 301 300 299 298 297 297 296 296 295 294 294 294 294 294 294 294 294 293 293 293 292 292 291 291 290 290 290 290 290 290 290 290 290 290 290 290 290 289 289 289 288 288 287 286 285 285 285 285 285 285 285 285 285 284 284 284 284 284 284 284 283 283 283 283 283 283 283 283
316 318 319 322 325 327 327 325 324 324 318 312 313 316 319 319 315 311 307 305 305 305 307 308 307 305 304 303 301 300 299 298 298 297 296 296 296 295 294 294 294 293 293 293 293 293 293 293 292 292 291 291 291 290 290 290 290 290 290 290 289 289 289 289 289 288 288 288 287 287 287 286 285 285 285 285 285 285 285 285 285 284 284 284 284 284 283 283 283 283 283 283 283 283 283 283 283
316 317 319 321 322 322 321 319 318 318 317 315 314 316 317 316 311 307 305 305 304 304 305 307 306 305 304 302 301 300 299 298 297 296 296 296 295 294 294 293 293 293 293 293 293 293 293 292 292 292 291 291 291 290 290 289 289 289 289 289 289 289 289 288 288 288 287 287 287 286 286 285 285 284 285 285 285 285 285 285 284 284 284 284 284 283 283 283 283 283 282 282 282 282 282 282 282
317 317 318 318 317 318 318 317 314 314 319 320 316 316 316 314 312 307 306 306 304 304 305 305 306 305 303 303 302 300 299 298 297 296 296 295 294 294 293 293 293 292 292 293 293 293 293 292 292 292 291 291 290 290 290 289 289 289 289 289 289 289 288 288 288 287 287 286 286 285 285 285 285 285 285 285 285 285 285 285 284 284 284 284 283 283 283 283 283 282 282 282 282 282 282 282 282
316 317 318 316 315 316 317 319 319 318 321 321 318 318 317 317 317 310 307 308 306 304 305 305 305 304 304 303 302 301 299 298 297 296 296 295 294 293 293 292 292 292 292 292 293 293 292 292 292 291 291 290 290 290 289 289 289 289 289 289 288 288 288 288 287 287 286 286 285 285 285 285 285 285 285 285 285 285 285 284 284 284 284 283 283 283 282 282 282 282 282 281 281 282 282 281 281
314 315 316 316 318 318 317 320 322 322 323 322 320 319 318 318 318 313 310 311 309 306 305 304 305 304 303 303 302 301 299 298 297 296 295 295 294 293 292 292 292 292 292 292 292 292 292 292 291 291 290 290 290 290 289 289 289 289 288 288 288 288 288 287 287 286 286 285 285 285 285 285 285 285 285 285 285 284 284 284 283 283 283 282 282 282 282 282 282 281 281 281 281 281 281 281 280
311 312 315 316 317 319 318 319 320 321 323 323 322 320 318 318 318 316 315 313 310 308 306 305 305 304 303 303 302 301 299 298 297 296 295 295 294 293 292 292 292 291 291 292 292 292 292 291 291 291 290 290 290 290 289 289 289 288 288 288 288 288 287 287 286 286 286 286 285 285 285 285 285 285 285 284 284 283 283 283 282 282 282 281 281 281 281 281 281 281 280 280 280 280 280 280 280
312 313 315 316 315 315 317 318 318 319 321 323 323 322 319 317 317 317 317 315 311 309 307 306 306 304 304 304 303 301 300 299 298 296 296 295 294 293 292 291 291 291 291 291 291 291 291 291 291 291 290 290 290 289 289 289 288 288 288 288 288 288 287 287 286 286 286 286 285 285 285 285 284 284 284 283 283 283 282 282 281 281 281 281 280 280 280 280 280 280 280 280 280 280 280 280 279
314 314 315 316 316 316 318 320 318 316 318 320 321 322 321 316 314 314 315 315 313 310 308 308 306 305 304 304 303 302 300 299 298 297 296 295 294 293 292 291 291 290 291 291 291 291 291 291 291 290 290 289 289 289 289 288 288 288 288 288 287 287 287 287 286 286 286 286 285 285 285 284 284 283 283 283 283 282 282 281 281 280 280 280 280 280 280 280 280 280 280 279 279 279 279 279 279
Wind_Speed
10 8 8 7 5 6 5 4 2 2 1 4 3 2 5 5 2 1 4 3 2 6 6 4 4 4 5 4 6 6 8 9 9 5 5 4 4 6 5 3 5 10 13 15 12 15 16 15 15 12 13 12 12 11 11 10 10 10 9 9 8 9 8 9 10 10 9 8 9 9 8 8 8 8 8 8 9 9 9 10 10 10 11 11 11 10 11 12 12 12 12 12 11 11 10 10 9
9 8 7 6 4 5 1 1 2 3 2 4 3 4 5 2 1 4 6 6 5 6 4 3 3 2 4 4 4 1 7 10 9 7 7 5 7 9 2 4 6 9 12 14 12 14 14 14 16 13 13 13 12 11 11 10 10 10 9 8 8 8 8 8 9 9 9 7 8 8 8 8 8 7 7 8 8 8 8 9 9 10 10 10 10 10 10 10 10 10 10 10 11 10 9 8 7
8 8 6 6 5 5 1 2 2 2 2 4 4 4 3 2 5 6 7 6 7 5 2 1 1 1 5 4 1 1 7 9 9 5 6 7 5 9 4 4 6 8 11 13 11 13 14 14 17 14 13 13 12 12 11 10 9 9 8 7 7 7 7 7 9 9 8 8 8 8 8 8 8 7 7 7 8 7 7 8 8 8 9 9 9 9 9 9 8 8 9 10 10 11 10 9 8
7 7 5 5 4 3 3 2 2 1 1 4 4 5 2 4 7 6 6 5 4 3 3 2 0 2 4 2 3 2 7 8 11 8 5 9 7 9 3 3 6 7 10 12 11 12 13 13 16 15 14 13 12 12 11 10 9 8 7 6 6 5 5 6 8 9 8 8 8 8 8 8 7 7 7 7 7 7 6 6 7 7 8 8 9 9 9 7 7 8 9 10 11 11 11 9 8
6 6 5 5 3 1 2 1 1 1 3 3 4 6 4 5 6 5 6 5 3 3 4 4 2 3 1 5 4 3 6 4 10 13 6 7 9 9 2 3 4 5 9 12 11 10 11 12 14 15 14 13 12 12 11 10 8 8 6 6 5 4 4 5 6 8 7 7 7 7 8 7 7 6 6 6 5 6 6 5 6 6 7 8 9 9 9 8 9 10 12 12 12 12 12 10 8
6 5 4 4 2 1 2 1 1 3 5 4 5 6 5 6 5 4 5 5 3 3 4 4 4 1 2 5 7 7 9 5 4 11 9 9 9 7 5 3 3 4 10 11 10 9 11 12 14 15 14 13 12 11 11 10 9 8 7 6 5 4 4 4 6 7 7 7 7 6 7 6 6 5 5 5 4 5 5 4 5 6 8 9 9 10 9 9 11 14 15 15 14 14 13 12 9
6 4 3 3 1 1 4 1 2 4 4 5 5 6 6 6 4 2 5 5 3 3 1 3 4 3 2 4 6 10 13 9 5 8 9 9 7 6 7 5 3 6 9 10 10 8 10 10 13 16 13 12 12 11 11 9 9 8 8 6 5 4 4 4 5 6 7 7 6 6 6 5 5 4 4 5 5 5 4 4 5 6 7 8 9 10 9 9 12 16 17 17 16 15 14 13 10
5 3 1 2 2 2 3 2 3 3 4 4 6 6 6 6 3 1 3 3 3 3 1 3 4 4 4 2 4 9 14 14 8 9 9 8 6 6 7 6 5 7 7 8 9 8 8 8 12 17 14 13 12 11 10 9 9 9 8 7 5 4 4 3 3 6 7 7 6 5 5 5 4 4 3 4 5 5 5 4 5 6 7 8 9 9 9 10 13 16 17 17 16 15 15 13 10
4 3 1 2 1 2 1 3 3 4 5 4 5 6 5 4 2 1 2 4 3 3 4 4 6 4 4 4 7 9 12 12 9 11 12 9 7 5 5 7 8 6 6 7 8 7 7 8 14 17 15 13 12 12 10 10 10 9 9 8 6 5 4 3 3 6 7 7 6 5 4 4 5 4 4 4 5 5 5 4 5 6 6 7 8 8 9 12 14 16 17 17 16 16 15 13 11
3 1 2 2 1 2 2 2 3 4 5 4 5 6 5 3 1 1 1 4 3 1 5 4 4 3 1 5 7 6 9 10 10 13 13 11 8 5 4 7 9 6 5 5 7 6 6 8 16 18 15 14 12 12 11 11 11 10 10 8 6 5 5 4 4 6 6 6 7 5 4 4 5 5 5 5 5 5 5 5 6 6 6 5 6 8 11 12 14 16 17 17 17 16 15 12 11
2 1 1 3 2 3 2 3 4 4 5 5 5 6 4 2 1 1 0 3 3 1 4 3 3 4 2 4 6 6 11 14 14 13 11 11 8 5 4 5 7 6 5 4 5 5 4 6 15 19 16 15 13 12 11 11 11 10 10 9 8 7 6 5 4 5 6 6 7 6 5 4 5 5 5 5 5 5 5 5 6 6 5 4 5 8 11 12 13 15 16 16 18 18 14 12 11
2 1 2 4 2 1 1 3 5 5 6 5 6 6 2 1 2 1 0 2 2 2 5 5 4 5 5 4 5 7 15 19 15 12 9 8 7 7 5 4 5 6 4 4 3 4 4 3 11 17 16 16 15 13 12 11 11 10 10 9 9 8 7 5 4 5 6 6 7 6 6 5 3 4 4 5 5 5 5 6 5 5 5 4 5 7 10 11 12 14 14 15 17 18 15 12 11
2 1 3 3 1 1 1 2 5 5 5 4 5 5 0 1 0 2 2 1 1 1 5 6 4 4 5 3 6 7 14 17 13 10 8 7 6 7 5 3 4 5 4 3 3 3 5 3 6 12 14 15 15 14 14 12 11 11 10 10 10 9 8 6 4 4 6 7 7 7 6 5 3 4 5 5 5 5 6 6 5 5 5 3 5 6 9 10 11 13 14 14 17 18 15 12 11
2 1 3 1 1 1 1 2 5 5 5 6 4 4 2 1 2 3 4 2 3 4 5 4 4 4 4 1 5 5 10 14 13 9 6 6 6 6 6 4 4 5 4 4 4 3 4 4 4 7 10 12 13 13 14 13 12 12 11 10 11 10 9 6 4 4 5 7 8 7 7 5 4 4 5 5 5 5 5 6 6 5 4 3 4 5 7 8 10 13 13 13 16 18 17 13 11
3 1 3 1 2 3 2 1 4 5 4 8 3 2 3 3 2 1 3 4 4 5 1 1 2 4 2 2 1 4 11 14 12 8 4 4 5 6 7 6 6 6 5 4 4 3 3 4 5 6 6 8 10 11 12 13 13 13 12 10 11 11 10 7 5 4 5 8 9 8 8 7 6 4 5 5 5 6 5 6 6 5 4 3 3 3 5 7 9 12 13 12 14 17 17 14 12
3 1 3 2 2 3 3 2 3 5 4 7 4 1 3 5 2 1 3 4 2 2 1 2 2 4 5 5 5 8 12 13 11 6 2 2 3 4 6 6 6 6 6 5 4 2 2 3 4 6 5 6 9 10 10 11 12 13 13 12 11 11 11 9 7 5 5 7 9 9 9 8 7 6 5 5 6 6 6 6 6 5 3 1 1 2 3 6 7 11 13 10 12 16 17 16 13
2 2 3 3 3 2 4 5 3 2 6 7 4 1 3 4 5 1 1 4 5 1 3 6 7 7 7 6 6 9 10 11 9 5 2 2 2 3 4 5 4 5 6 5 4 3 1 1 3 4 5 6 7 9 9 10 11 11 12 13 13 11 10 10 8 7 6 6 8 9 9 8 8 7 7 7 7 6 7 7 6 5 3 2 2 1 3 5 7 10 12 10 11 13 14 16 15
2 2 3 2 2 2 2 3 3 3 6 6 4 2 3 1 3 2 2 5 5 3 5 8 9 10 8 7 7 8 9 10 9 7 6 5 3 3 4 5 5 5 5 4 4 4 2 0 2 3 4 6 6 7 8 8 9 9 10 12 13 12 11 11 10 9 8 7 7 8 8 8 8 7 7 7 7 6 7 8 7 7 5 5 5 3 4 5 7 9 11 10 10 12 13 15 15
2 2 3 0 3 3 3 3 4 2 4 4 3 2 3 3 3 2 3 4 5 4 7 9 9 9 8 9 9 9 9 10 11 10 9 9 7 6 5 5 6 6 6 6 5 4 2 1 2 4 5 6 7 7 7 7 8 8 8 10 11 11 11 11 10 10 9 8 8 7 8 8 8 7 7 7 6 6 7 8 8 8 7 6 6 5 5 4 5 7 9 10 11 12 13 12 13
1 2 3 3 4 4 4 3 5 4 3 2 2 3 3 2 3 3 5 7 5 0 4 4 5 7 7 8 9 9 9 10 11 10 11 11 9 8 8 7 7 7 8 7 6 6 4 3 4 6 7 7 8 8 7 8 7 8 8 9 10 10 10 10 10 10 8 8 8 7 7 8 8 7 7 7 7 7 7 8 9 7 7 7 6 5 5 4 4 5 8 10 10 11 10 9 10
1 2 2 6 3 3 5 3 5 4 3 2 1 0 3 0 3 5 6 8 2 6 7 4 4 7 6 7 8 8 9 9 11 10 11 11 11 10 9 9 8 8 8 8 7 8 7 5 5 6 7 7 8 8 8 8 7 7 7 8 10 10 10 9 9 9 8 8 8 7 7 8 7 6 6 6 6 6 7 8 10 7 7 8 6 5 3 3 2 3 7 8 7 7 8 9 8
1 1 4 5 0 1 5 4 4 3 2 1 1 2 1 1 4 4 5 7 1 5 5 4 5 5 5 6 6 6 8 9 10 10 11 11 12 11 10 10 9 9 9 9 10 9 10 9 5 5 8 8 8 8 7 7 7 6 6 7 8 9 10 10 8 8 8 9 9 7 8 9 8 8 7 6 5 6 7 8 10 8 7 8 5 4 5 3 2 1 4 4 3 5 8 9 8
2 2 3 2 1 1 4 4 3 1 2 3 3 1 2 4 6 3 3 3 4 5 4 5 4 4 4 4 5 6 7 8 10 10 10 11 12 12 11 11 10 10 10 10 11 10 11 10 8 5 6 7 6 8 8 7 7 6 6 6 6 7 7 8 8 7 7 7 8 7 6 7 7 8 7 7 8 7 8 8 9 8 8 9 5 5 6 5 4 1 2 2 3 5 7 9 10
4 0 4 2 1 0 2 4 4 3 5 4 1 2 5 8 4 2 2 3 6 5 5 5 4 4 3 4 5 6 7 8 9 9 9 9 11 11 11 11 10 10 11 12 12 10 11 10 10 8 3 6 6 8 8 7 6 5 5 4 5 5 5 4 4 5 7 5 5 5 5 6 6 5 6 9 10 9 8 8 9 8 8 9 7 6 6 6 5 3 0 1 2 4 6 9 11
4 1 3 2 2 3 2 3 5 6 6 4 3 5 8 6 2 3 4 5 6 5 5 4 4 4 4 5 6 6 7 7 8 8 8 8 9 10 11 11 11 11 12 12 12 11 11 10 9 7 1 5 6 7 8 7 6 4 3 4 3 3 3 3 2 4 5 4 2 1 2 3 4 4 5 8 8 8 7 8 9 8 7 8 7 6 6 6 6 4 2 1 1 2 3 6 8
0 2 1 1 3 3 4 5 7 6 5 4 6 8 7 3 2 3 4 5 5 5 4 4 3 4 4 5 5 6 6 7 8 8 8 7 8 10 11 11 11 12 12 12 12 12 11 10 9 6 2 3 6 6 7 7 6 5 5 6 6 6 7 5 5 5 4 3 4 3 1 1 2 3 4 5 6 7 7 6 7 6 5 5 5 5 4 4 6 5 2 2 1 2 2 3 4
2 2 3 6 5 4 5 6 6 5 5 7 8 8 4 5 4 4 5 6 6 5 4 3 3 3 4 4 5 5 6 7 7 8 8 8 9 11 11 11 12 12 11 12 13 13 11 9 9 5 2 2 5 7 9 9 8 8 8 8 8 8 7 6 6 7 5 4 4 3 3 1 1 3 3 3 5 6 6 6 6 5 4 4 3 2 1 2 5 5 3 2 0 2 2 2 2
2 4 6 7 7 7 8 8 5 4 4 6 8 7 3 6 5 3 7 8 6 5 5 4 3 3 4 4 4 4 5 6 6 7 8 8 8 9 10 10 12 11 11 13 13 13 11 9 9 6 4 4 6 9 11 11 11 11 11 12 12 10 9 7 8 8 7 8 6 4 5 3 1 1 2 3 3 3 3 4 5 5 5 5 4 3 3 5 6 6 6 5 4 2 1 1 2
2 4 7 6 7 9 8 5 3 4 3 4 6 5 6 9 6 6 9 7 6 6 5 4 3 3 3 3 3 3 4 4 5 6 6 6 6 7 8 9 10 10 10 12 13 13 12 11 10 9 9 7 10 12 13 14 14 15 16 17 16 14 12 10 11 10 8 9 8 6 6 6 5 4 3 2 2 3 2 2 3 3 3 3 2 2 4 6 6 7 7 6 5 2 1 1 2
3 4 5 6 8 7 6 5 4 4 3 5 6 4 6 10 8 8 8 8 8 7 5 5 3 3 2 2 2 3 4 3 5 5 5 6 6 7 8 9 9 9 10 12 13 13 12 12 13 14 15 14 16 17 17 18 18 19 19 19 18 16 14 13 13 12 9 9 9 8 8 9 9 8 7 6 4 4 5 5 4 3 3 1 1 1 1 3 4 4 4 3 4 3 1 1 0
4 4 3 5 6 2 7 5 5 5 3 6 7 5 3 8 9 7 6 8 8 7 6 5 3 3 2 2 2 2 4 4 5 6 6 6 6 6 8 8 8 9 11 12 14 15 13 16 18 17 18 18 20 22 22 22 22 22 20 18 18 18 18 18 17 15 12 11 10 9 10 11 11 11 10 9 9 9 8 7 6 5 5 4 3 3 3 3 1 0 0 0 1 2 1 1 1
4 4 4 5 4 3 7 5 4 3 3 7 7 5 2 8 8 7 6 7 8 7 6 5 3 4 3 3 2 2 4 4 5 6 7 7 6 7 7 8 7 9 11 12 14 17 17 19 21 20 22 22 22 23 23 23 24 24 23 22 22 22 23 24 24 22 20 18 16 14 13 12 12 12 12 10 11 12 12 12 11 10 8 7 6 4 3 3 3 2 1 1 1 1 1 2 2
5 5 6 5 5 4 4 4 3 2 3 8 9 6 2 6 9 7 6 7 9 7 6 5 4 4 3 2 2 2 3 3 4 6 7 7 7 7 7 7 7 9 11 13 15 18 20 22 23 23 25 27 26 25 24 24 25 25 24 24 24 25 25 27 26 26 25 23 22 21 19 17 16 14 13 13 13 14 14 14 13 13 12 11 10 8 7 5 3 3 2 1 1 1 1 2 3
5 5 5 7 7 6 3 3 4 4 5 7 9 9 7 5 11 8 7 8 8 8 6 6 5 4 3 2 2 2 2 2 3 5 6 6 6 6 7 6 7 10 11 13 16 18 20 23 25 27 28 29 29 27 26 26 27 27 26 25 26 26 26 27 26 24 24 23 23 22 22 21 20 19 18 18 19 19 18 16 15 14 14 14 14 13 12 10 8 7 7 6 4 3 3 3 3
6 5 4 6 6 7 7 3 5 6 6 7 8 10 10 6 11 9 8 8 8 8 6 6 5 5 4 3 3 2 2 2 3 4 5 5 5 5 6 6 7 10 10 13 16 18 20 23 25 25 26 30 30 29 28 27 27 28 27 26 26 27 26 25 25 23 23 22 22 21 21 21 21 21 20 21 22 21 21 20 19 18 17 16 16 16 16 14 13 12 11 11 10 9 9 9 8
8 6 6 7 6 7 6 2 5 4 5 8 10 11 12 8 9 10 8 8 8 7 6 5 5 5 4 4 3 3 3 3 3 3 4 4 4 5 5 6 6 8 10 14 17 19 20 22 23 20 19 23 25 26 26 26 28 29 29 28 27 27 27 26 25 24 23 22 21 20 20 20 19 20 20 20 20 20 20 20 20 19 18 18 18 18 18 16 15 14 13 13 13 12 13 14 13
5 6 7 9 8 8 6 4 6 2 4 8 11 12 14 13 8 10 9 8 8 8 8 7 6 6 5 4 4 4 3 3 3 2 3 3 4 4 5 5 6 8 11 14 17 20 20 19 20 19 17 15 15 18 21 21 23 24 24 25 24 24 24 25 25 25 24 23 23 22 21 20 19 19 19 19 20 20 20 19 20 20 19 19 19 18 17 16 16 15 12 12 12 12 15 17 17
7 8 7 8 8 9 6 4 6 3 3 8 11 13 13 14 10 9 11 9 9 9 9 8 7 6 5 5 5 4 4 3 3 3 3 4 4 4 5 5 6 8 10 13 16 17 16 15 17 17 16 13 13 15 18 18 18 19 20 20 20 20 21 23 25 25 25 24 24 24 23 22 21 20 20 20 21 22 21 21 21 21 20 20 20 19 18 17 17 17 14 11 10 11 14 17 20
8 6 6 7 6 8 5 5 6 3 3 6 8 11 11 13 10 10 11 10 8 7 6 6 6 6 5 5 5 5 5 5 5 5 5 5 5 5 5 6 6 6 8 13 14 12 11 12 14 15 15 15 16 17 19 21 21 22 23 23 24 25 24 24 26 26 26 26 26 26 26 25 25 24 24 23 24 25 24 24 23 23 23 22 22 23 23 21 21 20 18 15 12 10 12 14 18
8 6 6 7 6 7 5 3 5 5 5 5 6 8 10 12 8 9 9 7 6 4 3 3 3 5 5 5 4 5 6 6 6 6 6 7 6 6 6 6 6 6 8 11 11 9 9 11 14 16 17 18 20 20 22 24 24 26 28 28 28 28 26 27 28 27 27 28 28 28 28 28 28 28 28 28 28 28 28 27 26 26 24 22 21 23 25 25 24 22 20 18 15 12 11 13 15
8 9 8 8 8 8 7 1 2 5 7 6 6 8 9 12 13 9 6 5 5 5 5 5 4 4 3 3 4 4 5 5 6 6 6 7 7 6 6 6 6 7 8 9 9 8 9 12 15 16 18 20 21 22 23 25 26 26 26 24 23 22 21 22 23 24 26 28 28 29 29 29 29 29 29 30 30 29 29 29 28 27 26 24 22 21 23 25 25 24 21 20 18 15 13 13 14
8 10 12 12 11 10 10 4 1 6 7 6 6 7 5 6 12 10 7 5 6 7 8 8 7 7 5 5 6 5 4 4 5 6 6 6 7 7 6 7 7 7 8 8 9 9 10 13 15 17 19 20 20 18 17 18 19 17 16 15 15 16 17 17 17 18 20 23 26 27 28 28 28 28 28 28 29 28 28 28 28 27 27 26 24 22 22 24 24 24 22 20 20 17 13 13 15
7 4 7 11 11 10 11 7 3 5 5 3 5 7 5 3 6 7 8 7 8 8 8 9 9 8 8 7 7 7 6 5 5 6 7 7 7 7 7 6 7 7 7 8 10 11 12 14 16 18 19 19 18 15 12 11 13 14 15 16 15 16 17 16 15 16 17 19 22 25 26 27 27 27 27 26 27 27 27 26 26 26 26 25 24 24 23 23 22 22 22 20 19 19 15 13 14
4 2 0 5 8 9 9 8 6 6 5 1 5 5 7 7 4 6 7 7 8 9 10 10 10 9 9 8 8 8 8 7 6 6 7 8 7 7 7 6 6 7 8 9 11 12 13 15 16 18 18 18 17 15 14 15 18 21 21 20 19 18 19 18 16 16 17 18 19 21 23 25 25 25 25 25 25 25 25 25 24 24 24 24 23 23 22 21 20 20 20 19 18 18 17 14 12
2 3 2 1 2 6 7 7 6 6 6 5 7 6 5 8 3 6 6 6 8 11 12 12 12 11 11 10 10 9 8 8 7 7 7 8 7 6 6 6 6 7 8 10 12 13 14 15 16 17 17 17 16 17 19 21 23 24 23 22 21 19 19 18 17 16 16 17 17 17 18 21 23 23 23 23 23 23 23 23 23 23 23 22 21 20 20 19 19 19 18 19 18 17 17 15 12
2 5 4 4 2 1 3 5 5 5 7 8 8 9 6 8 4 6 4 5 9 10 11 12 12 12 11 11 11 10 9 8 7 8 8 8 7 6 5 6 6 8 9 11 12 12 14 16 17 18 17 17 18 20 23 24 25 25 23 22 21 19 18 17 16 16 15 15 15 14 14 16 19 21 21 21 21 21 21 21 21 21 21 20 20 19 18 18 18 18 17 17 17 16 15 15 14
7 7 4 4 3 2 3 5 3 5 9 9 11 13 9 7 4 6 4 3 6 7 9 11 12 13 12 11 11 11 9 8 7 8 8 8 7 5 5 6 7 8 9 10 11 11 13 15 17 18 18 19 21 22 24 24 24 25 25 22 21 19 17 16 16 15 13 13 13 13 13 14 16 18 19 19 20 20 20 20 20 20 19 19 19 18 17 17 17 17 17 16 17 17 15 14 14
6 5 4 4 3 3 3 4 4 7 8 5 6 10 12 8 4 4 5 4 4 6 10 14 14 14 13 11 11 11 9 9 8 7 8 8 7 6 6 7 8 8 9 9 10 12 12 14 18 20 19 20 22 23 24 25 24 23 22 20 19 18 17 16 16 14 13 12 12 11 12 12 13 16 18 18 19 18 18 19 18 18 18 18 18 17 17 16 16 16 16 16 16 16 16 14 14
6 6 6 5 4 4 5 5 6 8 5 2 3 4 8 9 8 5 3 7 6 3 5 13 16 15 14 12 11 10 9 9 8 7 7 8 8 8 8 9 9 8 9 10 11 12 13 14 18 22 21 20 23 24 24 25 24 22 21 21 20 19 18 17 16 14 13 12 12 11 11 11 13 15 16 17 17 17 17 17 17 17 18 17 17 16 16 16 15 15 16 16 16 16 16 14 13
9 9 8 7 6 6 7 6 6 7 3 1 2 3 4 6 7 6 2 7 6 5 4 10 15 15 14 13 12 10 9 9 8 7 7 8 10 10 9 9 9 9 10 10 10 12 13 15 18 22 22 20 22 24 24 24 23 22 22 22 21 20 18 17 16 15 14 14 14 13 12 12 13 15 15 16 16 15 16 16 16 16 16 16 16 15 15 15 14 14 15 15 15 16 16 14 14
11 9 8 8 7 7 8 6 6 5 2 1 3 4 5 4 2 2 4 6 5 5 4 8 12 13 12 12 12 11 10 9 7 8 8 9 11 10 10 10 9 9 10 10 10 12 13 15 17 21 22 20 21 23 23 24 23 22 22 22 21 21 20 18 18 18 17 16 16 15 14 13 14 14 14 15 14 14 15 15 15 15 15 15 15 15 15 14 14 14 14 14 15 16 16 15 14
8 7 8 9 6 5 5 1 1 1 1 2 5 4 4 2 3 4 5 5 6 5 5 10 12 13 12 12 12 11 10 9 8 8 8 10 11 11 10 10 10 10 11 10 11 12 14 16 18 19 20 20 21 22 22 23 22 21 21 22 22 21 20 19 19 19 18 17 16 16 15 14 14 14 14 14 14 14 14 14 14 14 14 15 15 15 15 15 15 15 15 15 15 16 16 14 13
6 7 8 4 1 2 3 2 2 0 6 4 6 5 4 2 3 4 7 6 6 6 7 11 12 13 14 12 11 11 10 10 9 9 9 11 12 12 11 11 11 12 12 12 12 13 15 17 19 19 20 21 21 21 22 23 22 22 22 22 21 20 20 19 19 18 17 16 16 16 15 15 14 13 13 13 13 13 13 13 13 13 13 13 14 14 14 15 15 14 15 14 15 16 15 14 13
5 6 6 4 3 2 3 4 2 3 8 5 6 8 7 6 4 4 7 8 8 8 9 11 12 13 13 12 11 12 11 10 10 10 10 12 13 13 12 12 12 13 13 13 13 14 16 17 20 21 22 22 21 21 22 22 22 22 22 21 20 20 19 18 18 17 15 15 15 14 14 13 13 12 12 12 12 12 11 11 11 11 12 12 12 13 13 13 13 13 13 13 14 15 15 14 12
1 1 3 4 3 5 5 6 5 6 8 5 6 9 8 8 5 5 9 11 11 11 11 12 14 14 13 12 13 13 12 11 10 10 10 12 14 14 14 14 13 14 14 14 14 15 16 17 19 21 22 23 22 22 22 21 22 22 21 20 20 19 18 17 16 15 14 14 14 13 13 12 12 11 10 10 10 10 9 10 10 10 11 11 11 12 12 12 12 12 12 12 13 14 15 14 13
1 2 3 3 3 4 6 6 4 5 7 6 5 7 6 8 8 10 13 13 14 14 12 12 15 15 14 13 13 13 13 12 11 11 11 13 16 16 16 16 15 15 14 14 16 16 16 18 19 20 21 22 22 22 22 22 22 22 21 20 19 18 16 15 15 13 13 13 13 12 11 11 10 9 9 8 8 8 9 9 9 9 10 10 11 11 12 12 12 12 12 12 13 14 14 14 13
7 6 7 6 3 1 3 5 5 4 6 6 6 6 4 4 6 10 13 13 15 16 14 13 13 15 14 14 14 14 13 13 12 12 11 14 17 17 16 15 15 15 14 14 16 17 17 18 18 20 22 23 22 22 23 23 22 22 20 19 18 16 15 14 13 12 12 12 11 11 10 9 9 8 8 8 8 8 8 8 8 9 9 10 11 11 12 12 12 12 12 13 14 14 14 14 14
9 9 10 10 8 5 4 6 5 3 4 4 5 8 4 2 1 1 3 6 10 14 14 11 12 15 15 14 15 15 13 13 13 12 12 14 17 17 17 16 15 15 15 15 16 16 17 17 19 22 24 24 24 24 24 24 23 21 19 18 17 15 14 12 12 11 11 11 10 9 9 9 8 8 7 8 8 8 8 8 9 10 10 10 11 11 12 12 11 12 12 13 13 13 14 14 14
Wind_Direction
344 335 332 330 314 291 266 251 227 183 262 94 87 122 83 56 76 108 88 61 102 62 24 12 7 341 323 332 360 26 34 26 22 20 59 77 73 78 137 78 100 144 156 158 168 182 171 168 171 172 172 172 171 167 167 164 158 156 151 143 133 127 123 128 130 133 133 132 134 131 125 120 117 108 109 108 106 106 106 105 98 93 89 87 83 83 82 80 78 73 67 58 55 50 46 43 42
339 326 315 312 280 273 265 219 257 138 152 108 81 61 93 129 130 64 56 43 50 43 16 6 357 345 302 280 291 314 57 46 44 61 75 101 105 60 105 109 97 145 157 160 162 173 174 178 175 174 177 177 177 173 171 169 165 161 154 145 136 131 127 132 135 136 135 131 134 133 128 125 120 113 115 114 111 109 107 107 101 97 92 89 83 78 77 76 75 69 61 50 44 38 32 25 22
337 333 307 287 249 248 241 224 259 152 135 102 91 82 111 127 77 62 51 44 43 21 359 348 266 342 276 233 302 344 73 64 45 62 76 65 89 35 23 133 111 142 156 163 158 165 175 183 179 177 181 181 180 179 177 174 172 166 159 152 141 135 131 134 139 140 139 137 136 134 134 130 124 117 117 120 118 115 111 109 107 105 96 91 85 77 75 70 65 59 51 40 31 23 18 13 7
339 332 308 279 239 219 246 240 289 300 100 99 107 105 95 71 72 66 60 50 41 7 351 332 196 46 310 25 46 17 71 76 46 29 67 51 11 2 348 155 107 139 158 165 162 166 179 187 183 181 183 183 182 184 182 179 176 172 166 158 144 137 131 131 140 143 140 142 140 140 141 133 128 122 120 125 124 122 117 111 108 103 98 91 85 80 75 67 62 52 35 21 11 6 4 1 357
331 312 300 279 260 237 278 270 302 328 49 72 112 111 95 76 74 68 70 70 54 12 349 331 32 97 356 28 11 353 35 64 61 34 34 38 358 357 11 139 90 153 160 165 166 166 184 194 190 187 186 185 186 187 188 184 180 178 173 163 149 140 130 126 140 144 143 146 142 142 144 135 133 127 120 126 131 127 119 114 106 93 89 83 76 71 62 61 59 39 20 11 7 4 4 2 357
312 291 270 263 285 329 266 212 189 89 36 18 102 111 97 79 68 68 94 97 81 40 358 338 4 64 121 70 47 39 19 346 42 27 8 353 348 20 63 80 63 153 158 165 166 169 189 196 195 192 189 189 191 191 191 188 185 183 179 172 158 145 129 121 141 146 145 149 142 139 142 137 136 130 124 126 132 126 118 113 102 91 84 78 70 63 57 57 46 29 20 16 12 9 8 8 7
310 297 228 234 181 243 263 161 84 100 46 14 86 102 93 83 63 85 128 121 123 109 18 8 349 310 109 105 81 59 34 24 27 15 6 353 1 72 72 44 62 134 153 163 162 174 192 195 199 196 191 193 197 197 195 193 191 189 185 180 169 154 132 123 145 149 147 148 138 137 139 137 137 130 132 135 132 122 118 115 99 95 91 85 75 70 68 54 36 29 25 20 15 12 11 12 15
304 303 218 252 185 211 282 100 65 79 83 51 77 80 78 76 52 75 116 98 99 100 60 57 339 306 102 120 103 69 43 48 56 31 21 16 39 81 73 57 71 121 141 158 166 181 200 205 204 197 192 196 201 200 197 198 198 195 190 186 178 163 145 128 150 159 156 153 137 136 142 144 143 128 138 149 144 135 128 122 108 104 99 90 80 76 68 48 35 31 25 20 16 14 14 17 20
273 273 243 257 220 191 251 120 89 84 108 106 99 84 80 76 43 7 103 100 82 77 53 34 334 335 113 124 98 77 44 45 50 40 29 23 55 77 84 89 78 98 122 146 171 187 216 221 204 195 193 198 203 202 201 202 204 203 196 195 190 173 162 141 158 175 169 160 144 144 155 165 161 135 137 153 154 148 140 134 119 109 100 88 78 68 54 45 38 31 25 21 17 15 17 24 27
248 244 285 264 256 188 192 144 115 113 113 109 104 92 95 90 80 23 61 104 81 79 65 5 309 9 128 123 91 79 47 39 38 37 29 22 43 76 101 106 88 88 98 128 163 186 228 231 201 193 197 199 202 204 205 207 207 207 201 199 198 185 175 154 159 185 183 167 155 157 167 190 187 156 137 150 162 154 151 145 129 115 100 85 70 56 47 44 37 30 26 22 18 17 21 30 35
243 163 300 259 236 205 195 153 129 121 122 125 112 91 89 85 166 153 57 106 83 144 75 340 298 20 277 112 90 105 57 37 35 27 23 26 26 52 80 93 95 100 94 113 144 175 228 244 203 195 200 201 205 208 207 210 209 209 203 200 199 190 182 164 164 193 197 179 166 170 181 205 205 178 152 155 169 158 154 147 131 117 99 77 60 49 43 37 30 25 25 24 20 20 25 35 39
270 147 227 249 243 221 47 138 130 125 138 157 131 94 76 121 217 187 130 97 86 164 80 6 353 349 265 130 122 116 54 28 27 19 18 33 27 44 64 69 82 91 87 109 119 161 195 250 213 204 206 205 207 211 211 212 212 212 207 204 203 195 185 171 176 200 205 193 180 183 193 208 207 190 174 163 173 165 155 150 137 118 99 73 57 46 38 32 23 21 23 25 23 24 29 38 42
313 358 246 256 331 345 52 124 130 141 158 156 117 92 107 209 238 8 343 317 79 151 64 14 344 313 279 115 140 119 50 20 13 14 18 32 46 54 62 65 72 77 73 101 118 159 179 193 214 213 219 218 215 217 217 214 213 215 215 212 209 206 198 183 182 202 208 205 196 199 204 213 208 194 188 173 175 173 158 158 156 133 116 89 64 46 35 27 17 17 22 27 26 27 31 38 43
329 2 282 273 39 273 136 141 142 174 165 125 91 89 141 75 36 2 321 298 72 52 39 14 331 309 280 223 150 110 28 7 0 6 20 36 60 67 70 62 62 81 80 93 118 141 174 182 195 214 230 232 226 228 226 223 220 217 219 219 215 211 208 200 188 197 210 209 207 211 213 219 217 200 194 182 179 180 170 171 171 151 135 106 64 44 27 15 12 16 21 30 31 30 31 36 40
331 339 280 249 172 204 185 199 165 209 157 119 88 78 142 91 47 336 346 333 55 66 24 123 337 320 310 319 80 25 354 353 352 355 20 54 73 73 76 71 64 72 81 91 110 129 166 185 189 201 222 232 226 233 236 234 233 227 224 224 222 213 210 209 201 206 213 215 214 215 219 223 225 214 201 193 190 188 185 186 178 157 140 105 54 34 14 4 10 17 19 30 36 33 31 34 37
329 293 256 223 195 201 181 184 190 215 136 116 105 85 194 134 115 301 41 332 335 105 313 74 57 354 12 13 14 357 344 350 350 351 20 78 100 90 81 78 77 70 69 78 81 97 160 173 182 193 204 222 220 226 237 242 242 238 232 230 229 219 213 210 207 216 220 224 220 217 224 230 236 232 220 209 203 198 194 191 180 167 151 102 21 5 360 0 7 13 13 24 38 36 34 35 35
296 257 246 226 196 189 167 175 183 156 118 118 120 82 256 150 142 153 56 276 269 252 68 64 65 49 42 36 12 357 353 360 2 8 35 46 104 109 76 64 70 66 55 61 56 45 55 148 189 199 202 212 218 224 232 243 247 244 237 235 236 231 226 217 210 222 228 232 227 222 226 232 238 233 224 219 212 209 202 189 181 184 190 247 278 301 336 351 358 5 13 25 35 34 34 35 33
267 246 240 243 172 133 116 149 112 106 123 121 109 41 312 239 122 116 243 219 230 249 116 93 76 75 69 54 23 11 12 14 20 30 44 40 45 56 53 45 43 45 38 37 28 18 27 27 211 206 210 209 210 218 224 235 245 246 236 232 235 235 239 232 220 225 228 229 227 225 228 232 235 228 219 220 215 209 205 193 192 200 212 244 258 281 312 331 350 8 23 34 35 27 28 30 28
280 287 248 88 66 76 53 78 84 81 112 112 105 51 325 330 30 24 283 235 235 245 140 129 108 89 70 51 30 23 25 26 30 32 42 39 37 39 35 32 28 28 21 15 8 354 334 294 242 207 205 208 203 207 216 223 234 238 229 224 226 227 234 234 228 230 228 224 224 223 227 232 232 227 219 219 214 211 214 208 206 210 219 240 257 280 298 313 346 15 28 36 36 31 31 28 23
304 293 262 84 78 90 77 79 79 60 67 96 108 64 303 327 357 321 311 297 268 219 94 134 112 63 43 42 27 23 28 33 34 32 39 35 34 34 27 24 17 16 8 1 1 352 330 283 253 222 203 201 203 202 210 214 220 225 221 216 218 221 225 228 229 231 227 223 224 220 228 240 238 234 231 232 225 224 228 212 209 216 226 236 252 270 282 303 338 15 23 31 38 40 43 36 29
324 311 352 83 106 129 108 89 77 64 39 349 62 17 265 62 330 302 309 296 250 86 42 11 24 29 29 33 24 24 28 34 34 32 36 33 32 29 24 21 14 10 3 359 357 352 342 313 266 235 211 201 200 198 205 208 209 216 213 207 209 215 214 216 223 224 224 227 229 226 225 235 242 239 236 240 233 230 229 212 212 221 222 226 239 245 257 305 337 14 18 33 43 43 42 39 42
275 34 51 84 89 128 120 101 75 64 18 325 256 262 295 47 279 278 289 292 51 75 38 30 30 35 31 24 23 26 30 33 32 30 31 30 29 24 19 16 13 9 4 2 355 350 348 335 306 247 216 202 199 198 204 205 207 208 205 205 207 215 215 214 217 213 216 223 227 232 228 225 236 240 228 227 235 230 224 214 217 219 213 216 224 218 222 253 248 349 16 42 56 41 34 30 37
277 110 92 90 5 65 124 123 105 119 243 237 246 321 348 276 262 248 275 321 69 73 64 70 61 57 44 36 36 32 34 31 29 28 25 28 25 20 16 12 10 6 2 2 355 351 349 345 345 316 228 198 197 200 202 204 209 205 202 202 199 210 215 217 225 220 212 213 218 226 230 228 236 242 231 224 229 231 225 217 219 221 217 219 218 216 222 233 232 243 22 31 35 36 34 29 32
279 172 121 112 32 205 138 139 155 195 227 233 274 325 265 257 255 195 186 87 90 96 87 85 83 81 67 57 49 41 40 32 30 28 25 27 24 21 19 13 10 7 5 1 356 354 350 350 355 340 254 187 189 198 201 201 203 201 200 196 198 213 210 215 235 218 202 201 211 218 229 238 237 235 240 237 232 235 233 222 221 226 233 229 218 216 227 235 239 235 271 11 27 33 32 32 33
256 314 115 137 204 210 184 180 200 208 228 232 225 251 248 245 241 192 161 108 107 110 101 109 109 96 80 62 51 47 42 35 30 27 29 28 24 25 23 16 12 11 8 2 0 2 359 0 3 354 298 179 183 189 192 192 196 199 188 171 174 187 144 139 157 137 152 149 128 168 217 238 245 256 262 257 250 250 247 235 228 232 245 238 224 228 241 250 249 238 220 259 36 53 40 36 36
17 355 90 215 222 213 217 231 229 215 222 211 217 242 232 192 186 191 150 120 123 124 120 127 128 100 77 64 51 45 41 35 25 22 27 28 27 27 24 17 14 13 10 10 11 14 17 18 17 15 26 169 173 173 174 172 170 159 142 140 138 130 108 106 130 116 107 98 85 74 46 204 228 268 276 272 259 250 250 247 243 249 255 238 236 254 260 261 247 236 236 268 9 52 44 37 48
17 329 289 267 255 240 224 237 239 221 224 208 225 253 199 148 208 209 139 139 144 144 139 129 131 98 74 66 55 43 40 34 23 20 21 24 26 22 19 14 11 12 15 24 25 23 29 27 23 42 84 146 157 158 162 156 147 139 128 126 127 124 115 105 102 100 102 96 93 92 52 36 220 248 260 276 266 252 252 246 238 239 218 196 204 231 230 240 229 223 225 224 105 98 74 36 60
334 316 289 259 245 243 225 230 233 214 225 208 226 253 158 152 216 183 130 148 162 161 146 135 132 99 81 74 65 48 42 35 24 25 25 24 21 17 17 13 9 12 22 30 31 32 41 39 29 57 124 153 143 144 149 142 135 131 121 112 107 104 113 115 99 93 93 88 93 109 84 66 71 275 261 278 290 297 285 238 215 211 189 178 178 183 214 233 232 236 245 252 256 205 94 354 18
298 291 287 274 254 246 218 205 201 206 205 178 210 236 201 194 187 125 132 153 165 171 159 145 136 112 104 96 90 77 60 47 39 33 28 26 24 24 22 16 14 20 29 33 42 48 49 49 50 77 107 123 129 131 126 119 120 122 115 106 100 96 99 104 99 94 90 83 82 86 84 80 81 71 61 41 359 15 43 131 166 181 181 190 195 210 236 242 249 259 266 268 261 249 59 3 21
274 248 270 294 274 239 173 145 161 192 160 160 205 254 215 185 152 123 139 159 169 179 169 158 150 135 129 111 106 92 80 64 57 43 29 28 26 30 24 19 23 33 43 45 58 63 53 62 79 91 98 104 114 117 112 110 112 112 109 105 102 95 92 92 92 92 89 88 84 82 85 83 81 77 75 83 84 79 84 88 89 92 97 108 97 80 203 220 239 255 264 259 247 237 210 215 206
258 253 237 256 272 197 136 144 179 183 152 174 213 272 224 153 137 132 147 166 178 185 170 164 162 148 144 129 129 104 90 70 60 50 35 34 29 32 26 24 36 52 60 61 68 72 71 80 89 98 104 103 106 109 109 108 108 106 104 104 104 99 95 92 90 89 88 90 90 88 91 93 92 90 88 90 90 89 86 82 77 69 72 86 93 86 78 77 64 338 261 290 304 263 231 273 276
228 256 248 224 243 176 144 153 203 202 156 184 210 269 204 146 145 136 144 178 188 196 175 163 169 152 155 146 134 120 106 83 64 49 34 34 30 30 27 28 53 74 76 77 82 87 91 93 95 102 110 111 108 107 108 108 106 103 102 102 102 101 99 94 92 91 90 89 88 85 85 90 97 100 101 96 90 86 80 76 74 67 67 76 88 88 73 64 45 16 25 60 3 291 284 308 299
215 230 261 246 243 234 169 150 204 212 162 188 209 260 291 142 149 139 145 181 190 202 186 168 174 157 161 159 141 143 129 108 75 46 29 31 27 27 31 36 66 85 86 88 91 95 98 100 103 105 107 109 108 107 107 106 104 103 102 102 101 101 99 96 94 92 91 88 85 83 81 83 87 92 97 97 95 91 85 82 78 74 70 67 69 70 70 71 68 67 69 92 160 217 276 304 288
222 211 249 261 254 252 231 154 156 178 198 216 214 243 272 151 148 157 160 176 192 200 192 178 177 170 168 163 152 158 142 117 78 41 24 24 26 31 37 46 82 90 90 94 95 99 102 102 105 107 107 107 106 106 106 105 105 104 103 104 103 102 99 96 95 93 91 89 88 87 86 86 87 88 89 91 90 87 86 86 85 84 78 71 67 68 72 73 74 72 65 65 69 64 44 16 346
268 243 251 265 246 236 248 212 153 175 202 240 234 240 258 190 152 166 167 177 200 198 187 180 176 176 172 175 170 155 149 120 74 36 24 24 28 37 39 51 86 87 88 98 100 105 109 106 104 104 106 108 108 107 106 107 107 105 104 105 103 101 99 97 96 94 92 91 91 90 90 89 88 89 87 86 86 84 83 80 80 81 79 76 70 68 67 65 66 63 58 56 48 44 40 25 7
293 286 282 280 262 249 256 141 133 184 220 246 251 253 261 234 172 169 170 179 201 194 179 179 180 180 177 181 175 158 163 124 79 40 30 35 38 44 50 60 76 82 91 99 103 109 111 109 105 100 99 104 105 105 105 107 107 106 105 104 100 98 97 97 96 95 94 93 93 92 92 91 90 91 88 85 82 80 78 75 73 69 66 66 62 58 52 48 49 44 41 40 35 30 25 19 6
293 282 276 269 266 269 266 126 123 154 247 253 257 259 263 260 215 172 169 180 195 194 186 188 186 183 186 182 173 166 158 117 101 88 62 61 58 62 71 73 77 90 101 104 108 113 109 105 107 105 103 101 99 103 106 105 103 102 101 97 94 91 90 92 92 92 93 94 94 93 92 91 91 91 89 88 83 78 75 72 71 64 57 56 55 53 48 45 41 35 30 28 32 30 22 18 8
262 264 265 259 254 265 264 133 130 147 239 259 265 262 258 265 248 172 164 185 198 200 195 196 190 180 186 180 175 170 146 137 147 138 111 97 84 83 89 87 88 93 106 112 113 113 108 103 106 108 107 101 97 103 107 105 101 99 97 92 90 85 81 83 85 86 88 90 90 90 90 90 91 90 90 91 88 84 79 75 73 69 62 59 59 58 54 53 48 43 37 26 30 37 32 22 14
253 250 253 257 254 266 255 141 139 167 236 265 270 267 261 265 249 175 177 197 191 192 191 190 186 180 188 182 176 173 161 160 157 145 135 123 109 103 100 96 97 93 106 117 114 106 98 98 108 113 111 110 111 111 111 109 106 105 103 100 98 93 87 86 86 86 86 86 86 86 86 86 87 88 88 89 89 87 84 81 78 75 71 65 61 60 58 56 52 47 41 33 32 35 38 28 22
240 236 241 250 246 261 255 154 142 184 229 278 288 276 268 265 237 173 182 192 158 151 166 167 184 188 186 176 172 177 173 168 159 149 141 134 126 119 113 107 108 107 110 115 111 97 92 99 109 114 115 117 119 119 118 115 112 111 108 104 100 96 92 91 90 87 87 85 84 84 83 83 84 85 85 86 87 87 86 84 80 77 73 67 61 58 57 56 54 50 44 41 38 29 31 31 27
230 228 233 248 247 249 255 234 133 217 229 238 264 276 267 251 230 196 158 159 160 164 179 185 193 192 172 162 176 184 176 167 160 150 142 141 137 127 122 120 119 117 115 112 105 94 96 106 111 113 112 112 113 113 114 113 112 109 106 102 97 94 90 86 84 82 82 83 82 82 83 83 84 83 83 83 83 83 83 82 79 77 73 69 65 59 56 55 55 54 48 44 41 34 28 29 30
240 225 224 240 256 260 264 278 331 277 257 196 212 269 276 238 226 202 147 165 192 178 190 196 187 185 182 183 185 180 174 167 157 148 145 144 140 133 124 123 120 113 112 111 105 102 108 115 118 119 117 115 113 112 111 110 109 108 108 106 101 97 89 81 80 81 80 81 82 83 83 83 82 82 81 80 80 79 79 78 77 75 73 70 67 63 59 55 54 54 51 46 43 42 37 31 29
257 238 216 231 254 264 263 264 244 271 287 148 188 259 278 259 221 176 146 178 190 179 198 198 183 183 185 186 181 173 173 172 158 148 149 148 144 140 128 121 119 113 116 113 107 111 119 123 125 126 126 124 122 119 116 115 117 116 113 106 101 99 95 89 88 87 85 84 83 83 83 82 81 80 79 78 77 76 75 74 73 73 71 68 66 64 61 57 53 52 52 49 45 44 43 35 26
255 21 131 214 241 253 249 245 235 255 291 198 193 238 274 271 227 146 150 179 186 191 203 196 187 186 183 183 176 169 169 167 163 158 156 150 144 140 131 122 116 117 118 113 113 119 125 128 129 130 130 128 127 126 124 124 124 120 114 104 97 97 98 98 96 92 91 88 85 81 80 81 81 79 78 76 75 74 73 72 71 70 70 68 65 63 60 58 54 52 50 50 48 45 43 38 28
241 74 68 158 238 257 242 235 239 252 273 247 199 183 253 264 205 138 163 197 210 208 199 192 190 184 180 180 172 166 162 161 163 159 154 147 138 133 131 129 120 119 119 119 124 129 129 130 131 131 129 127 127 128 127 125 123 118 112 106 102 100 100 100 99 95 93 89 85 81 77 77 78 78 78 76 74 73 73 72 70 69 69 68 65 63 61 58 54 51 49 47 47 45 43 41 32
148 117 100 90 109 241 224 234 243 240 249 249 211 180 224 270 222 164 176 220 231 217 193 187 184 178 178 175 168 164 159 158 160 154 148 142 134 128 132 133 125 120 122 126 128 128 129 131 132 130 127 126 127 128 127 124 121 117 112 109 107 105 105 104 101 96 93 90 85 82 79 76 75 75 76 75 74 72 71 70 69 67 66 65 63 60 58 55 51 48 47 44 43 43 42 40 32
140 145 125 124 161 162 199 230 237 245 249 241 216 199 211 269 253 182 173 225 221 190 173 175 172 172 174 170 167 164 160 159 157 151 144 135 131 137 144 138 129 123 122 125 126 125 125 128 132 130 125 127 127 128 127 123 120 118 115 111 109 109 109 107 103 99 95 92 88 84 81 77 75 74 73 73 72 69 68 66 65 64 62 60 58 55 52 51 48 44 42 39 37 36 37 35 29
157 173 167 172 186 169 210 219 201 243 253 226 205 203 207 232 248 163 120 88 133 154 169 174 169 170 170 168 167 163 160 159 155 152 146 143 147 155 158 144 135 131 129 129 129 127 123 125 131 130 126 128 130 129 127 123 119 117 114 111 108 109 109 107 104 102 99 95 91 88 83 77 74 73 72 70 68 66 64 63 61 59 57 55 53 50 47 46 45 40 37 35 33 30 30 30 23
192 190 184 198 215 203 222 215 202 235 246 127 123 186 213 233 245 235 130 101 106 102 164 171 166 167 166 164 164 160 157 157 157 158 153 156 163 167 165 152 145 143 141 137 132 129 125 125 131 130 126 128 130 128 126 123 121 118 116 114 113 111 108 105 103 100 99 96 93 90 85 81 77 75 73 69 66 63 61 58 56 53 51 49 46 44 41 39 39 36 31 29 29 24 23 25 18
194 191 183 196 212 228 237 224 222 233 222 92 142 177 231 250 246 245 134 98 93 59 94 158 161 161 161 160 158 155 157 160 161 161 159 166 170 171 167 157 153 152 148 143 136 131 128 126 130 130 128 128 128 128 127 125 122 120 120 118 116 113 108 104 103 102 101 100 98 95 90 86 82 78 73 69 66 61 58 55 52 49 47 44 41 38 36 34 35 35 28 25 25 19 18 20 14
196 196 196 207 213 237 247 233 236 235 143 118 172 179 218 216 165 117 96 93 95 80 96 140 151 154 153 154 155 156 161 164 164 164 166 172 172 171 168 162 160 158 154 147 139 135 132 131 133 132 130 130 130 130 129 128 125 123 123 121 118 116 112 109 108 107 105 103 102 100 96 92 87 81 75 69 63 58 55 51 47 44 41 38 35 32 32 29 29 31 24 21 21 15 13 15 11
194 195 208 221 227 249 262 257 253 292 3 195 186 220 251 181 116 114 128 122 113 111 124 140 148 152 151 156 161 163 167 167 168 169 171 175 174 173 170 166 164 161 159 153 145 142 139 137 136 134 132 134 134 134 132 131 130 127 125 123 120 117 114 112 111 110 108 105 103 100 97 93 86 79 71 65 58 52 49 44 41 37 32 30 26 24 23 20 21 22 17 14 13 10 10 10 4
171 189 206 205 3 282 254 213 113 338 276 238 171 220 259 187 167 144 147 150 136 138 152 153 155 157 159 166 167 169 172 170 172 174 174 175 175 175 173 171 169 167 165 160 154 151 147 143 141 138 137 137 137 137 136 134 132 129 126 123 120 118 116 113 112 110 106 103 100 96 91 86 80 72 64 59 52 47 42 39 35 30 26 23 19 17 14 13 16 15 12 9 5 5 7 5 359
153 191 188 118 44 312 262 247 221 223 255 245 172 208 221 205 210 149 156 176 167 165 167 162 163 166 171 174 171 173 173 169 172 173 175 177 176 177 177 176 174 172 169 164 158 154 151 148 147 145 144 143 142 141 139 137 134 130 128 126 123 120 118 114 111 108 105 102 97 92 88 81 74 67 60 54 48 43 37 33 30 25 22 18 14 13 10 9 12 12 11 7 360 359 2 2 357
183 242 168 140 218 221 201 228 245 231 242 253 212 212 217 216 204 155 178 190 180 176 173 172 176 177 180 178 173 174 170 168 174 176 178 179 179 181 179 178 178 174 170 166 160 157 154 152 151 149 148 148 147 145 143 141 138 135 132 130 127 123 119 114 111 109 106 103 98 92 87 80 73 66 59 53 47 41 35 30 27 22 18 15 12 10 8 8 9 9 7 2 356 356 359 359 353
259 279 203 187 242 230 204 210 234 236 241 257 232 210 218 223 202 182 191 190 178 175 178 185 186 183 183 179 174 175 174 175 179 179 181 180 180 182 180 179 177 172 171 167 164 160 156 154 153 151 151 152 151 150 149 147 144 140 137 134 130 126 123 119 115 112 108 103 97 91 85 80 76 69 61 56 48 42 35 29 25 19 15 12 9 7 6 7 8 5 2 357 355 356 357 354 347
187 198 200 193 186 239 259 232 225 236 246 249 247 244 234 204 196 199 196 183 174 175 180 188 188 184 184 181 178 177 177 179 178 178 180 179 178 178 177 177 174 171 170 168 167 164 159 156 155 156 157 157 156 155 154 152 149 145 143 139 136 132 129 124 119 115 109 102 95 90 85 81 77 68 59 53 45 38 32 27 22 17 13 9 7 6 4 5 4 1 356 353 353 352 351 348 344
193 197 197 196 188 182 220 224 208 215 246 246 260 271 260 121 90 236 179 162 168 177 181 180 179 182 183 184 184 180 176 178 178 178 177 175 174 172 172 173 171 171 172 171 170 167 163 162 162 163 164 162 162 161 159 157 153 151 148 145 143 140 136 130 124 118 110 102 95 90 85 79 70 62 54 45 39 32 26 21 17 13 10 7 4 2 1 0 358 355 352 350 348 345 344 342 339